Find Zhijiang-2

NORAD ID: 63983 Int'l Des: NNA 2025-100 Owner: GUOX/ZJLAB Country: CN operational
LEOCIRCULARRETROGRADESSO

实时位置

正在加载3D地球...

关于 Zhijiang-2

正在加载描述...

即将过境

Passes for default location (London). Set your location on the main map for personalized predictions.

高度历史

Loading altitude history...

两行轨道根数

1 63983U 25100B 26105.30082479 .00015442 00000-0 44935-3 0 9998
2 63983 97.3665 182.2374 0010734 157.2708 202.9013 15.35459538 51257
Epoch: Apr 15, 2026 • Age: 6 hours

当前状态

高度 489.7 km
速度 7.62 km/s
星下点 -79.78°S, 82.48°W
发射日期 May 14, 2025
运行时间 0.9 years
类型 other

技术详情

分类 Payload
质量 100.00 kg
干质量 100.00 kg
总质量 100.00 kg
长度 0.50 m
直径 0.30 m
跨度 0.50 m
形状 Box + 2 pan
制造商 GUOX
平台类型 XSD Large
阶段状态 In Orbit
所有者/国家 GUOX/ZJLAB/CN

Most Searched